Weather History for KPLN - February, 2014

Change the Weather History Date:

Saturday, February 8, 2014

  Actual Average Record
Temperature  
Mean Temperature 2 °F -  
Max Temperature 16 °F 25 °F 43 °F (1991)
Min Temperature -11 °F 2 °F -33 °F (1962)
Degree Days  
Heating Degree Days 62    
Moisture  
Dew Point 1 °F    
Average Humidity 71    
Maximum Humidity 91    
Minimum Humidity 57    
Precipitation  
Precipitation 0.00 in - - ()
Sea Level Pressure  
Sea Level Pressure 30.18 in    
Wind  
Wind Speed 6 mph (WSW)    
Max Wind Speed 14 mph    
Max Gust Speed -    
Visibility 10 miles    
Events Snow    
Averages and records for this station are not official NWS values.
T = Trace of Precipitation, MM = Missing Value Source: NWS Daily Summary

Daily Weather History Graph

Daily Weather History Graph

Search for Another Location

Airport or City:

Trip Planner

Search our weather history database for the weather conditions in past years. The results will help you decide how hot, cold, wet, or windy it might be!

Date:

Astronomy

Feb. 08, 2014 Rise Set
Actual Time 7:51 AM EST 5:56 PM EST
Civil Twilight 7:20 AM EST 6:27 PM EST
Nautical Twilight 6:45 AM EST 7:02 PM EST
Astronomical Twilight 6:10 AM EST 7:36 PM EST
Moon 12:44 PM EST (2/8) 3:07 AM EST (2/8)
Length of Visible Light 11h 06m
Length of Day
10h 04m
Waxing Gibbous, 68% of the Moon is Illuminated
Feb 8
Waxing Gibbous
Feb 14
Full
Feb 22
Last Quarter
Mar 1
New
Mar 8
First Quarter

Hourly Weather History & Observations

Time (EST) Temp. Windchill Dew Point Humidity Pressure Visibility Wind Dir Wind Speed Gust Speed Precip Events Conditions
12:54 AM 12.0 °F -0.4 °F 1.0 °F 61% 30.16 in 10.0 mi West 9.2 mph - N/A   Clear
1:54 AM 10.0 °F -0.9 °F -0.9 °F 61% 30.17 in 10.0 mi West 6.9 mph - N/A   Clear
2:54 AM 7.0 °F -1.7 °F -0.9 °F 70% 30.18 in 10.0 mi WNW 4.6 mph - N/A   Clear
3:54 AM -2.0 °F -10.1 °F -6.0 °F 83% 30.19 in 10.0 mi WSW 3.5 mph - N/A   Clear
4:54 AM -4.0 °F -12.4 °F -8.0 °F 83% 30.21 in 10.0 mi WSW 3.5 mph - N/A   Clear
5:54 AM -9.0 °F - -13.0 °F 83% 30.22 in 10.0 mi Calm Calm - N/A   Clear
6:54 AM -9.0 °F - -11.9 °F 87% 30.22 in 10.0 mi Calm Calm - N/A   Clear
7:54 AM -11.9 °F -23.8 °F -16.1 °F 82% 30.23 in 10.0 mi NW 4.6 mph - N/A   Clear
8:54 AM -9.0 °F - -11.9 °F 87% 30.24 in 10.0 mi Calm Calm - N/A   Clear
9:54 AM 3.0 °F - 1.0 °F 91% 30.23 in 10.0 mi Calm Calm - N/A   Clear
10:54 AM 10.9 °F -1.8 °F 1.9 °F 67% 30.22 in 10.0 mi West 9.2 mph - N/A   Clear
11:16 AM 14.0 °F 2.0 °F 3.9 °F 64% 30.17 in 10.0 mi SW 9.2 mph - N/A   Mostly Cloudy
11:54 AM 14.0 °F 5.1 °F 3.9 °F 64% 30.22 in 10.0 mi SW 5.8 mph - N/A   Overcast
12:30 PM 14.0 °F 2.0 °F 3.9 °F 64% 30.16 in 10.0 mi SW 9.2 mph - N/A   Scattered Clouds
12:42 PM 15.1 °F 5.2 °F 5.0 °F 64% 30.15 in 10.0 mi Variable 6.9 mph - N/A   Mostly Cloudy
12:54 PM 15.1 °F 4.2 °F 3.9 °F 61% 30.19 in 10.0 mi WSW 8.1 mph - N/A   Mostly Cloudy
1:08 PM 16.0 °F 3.6 °F 3.9 °F 59% 30.14 in 10.0 mi West 10.4 mph - N/A   Partly Cloudy
1:54 PM 16.0 °F 2.9 °F 5.0 °F 62% 30.19 in 10.0 mi SW 11.5 mph - N/A   Scattered Clouds
2:02 PM 15.1 °F 2.5 °F 3.9 °F 61% 30.13 in 10.0 mi WSW 10.4 mph - N/A   Mostly Cloudy
2:12 PM 16.0 °F 5.3 °F 5.0 °F 62% 30.13 in 10.0 mi West 8.1 mph - N/A   Scattered Clouds
2:54 PM 15.1 °F 3.3 °F 3.9 °F 61% 30.18 in 10.0 mi WSW 9.2 mph - N/A   Partly Cloudy
3:54 PM 16.0 °F 1.7 °F 3.0 °F 57% 30.18 in 10.0 mi West 13.8 mph - N/A   Clear
4:54 PM 16.0 °F 5.3 °F 3.9 °F 59% 30.18 in 10.0 mi SW 8.1 mph - N/A   Mostly Cloudy
5:14 PM 15.1 °F 6.4 °F 5.0 °F 64% 30.12 in 10.0 mi WSW 5.8 mph - N/A   Overcast
5:54 PM 14.0 °F 8.2 °F 6.1 °F 71% 30.18 in 5.0 mi WSW 3.5 mph - 0.00 in Snow Light Snow
6:49 PM 12.2 °F 6.1 °F 6.8 °F 79% 30.13 in 10.0 mi South 3.5 mph - 0.00 in   Overcast
6:54 PM 12.9 °F 5.2 °F 7.0 °F 77% 30.19 in 10.0 mi South 4.6 mph - 0.00 in   Overcast
7:54 PM 14.0 °F - 6.1 °F 71% 30.19 in 10.0 mi Calm Calm - N/A   Overcast
8:54 PM 10.9 °F - 5.0 °F 77% 30.18 in 10.0 mi Calm Calm - N/A   Overcast
9:54 PM 10.9 °F - 6.1 °F 81% 30.17 in 9.0 mi Calm Calm - 0.00 in   Overcast
10:54 PM 12.0 °F 4.1 °F 6.1 °F 77% 30.16 in 7.0 mi East 4.6 mph - 0.00 in   Overcast
11:54 PM 10.9 °F - 7.0 °F 84% 30.16 in 5.0 mi Calm Calm - 0.00 in Snow Light Snow